TimeCDT,TemperatureF,Dew PointF,Humidity,Sea Level PressureIn,VisibilityMPH,Wind Direction,Wind SpeedMPH,Gust SpeedMPH,PrecipitationIn,Events,Conditions,WindDirDegrees,DateUTC
12:58 AM,64.9,64.9,100,29.88,10.0,SSW,6.9,-,N/A,,Clear,200,2013-05-23 05:58:00
1:58 AM,63.0,63.0,100,29.88,10.0,SW,6.9,-,N/A,,Clear,220,2013-05-23 06:58:00
2:58 AM,63.1,63.1,100,29.89,10.0,West,5.8,-,N/A,,Partly Cloudy,270,2013-05-23 07:58:00
3:58 AM,63.7,63.7,100,29.91,10.0,WNW,5.8,-,N/A,,Clear,290,2013-05-23 08:58:00
4:58 AM,62.2,62.2,100,29.92,10.0,WNW,4.6,-,N/A,,Clear,290,2013-05-23 09:58:00
5:58 AM,60.6,60.6,100,29.94,10.0,West,4.6,-,N/A,,Clear,270,2013-05-23 10:58:00
6:58 AM,63.7,63.7,100,29.97,10.0,West,3.5,-,N/A,,Clear,270,2013-05-23 11:58:00
7:58 AM,66.0,60.3,82,29.98,10.0,WNW,9.2,-,N/A,,Clear,290,2013-05-23 12:58:00
8:58 AM,68.2,57.2,68,29.99,10.0,NW,10.4,-,N/A,,Clear,310,2013-05-23 13:58:00
9:58 AM,70.3,56.7,62,29.99,10.0,WNW,10.4,-,N/A,,Clear,290,2013-05-23 14:58:00
10:58 AM,72.0,56.7,58,29.98,10.0,West,11.5,-,N/A,,Partly Cloudy,280,2013-05-23 15:58:00
11:58 AM,72.0,56.3,58,30.00,10.0,West,10.4,-,N/A,,Mostly Cloudy,280,2013-05-23 16:58:00
12:58 PM,70.7,57.6,63,30.01,10.0,West,10.4,-,N/A,,Mostly Cloudy,270,2013-05-23 17:58:00
1:58 PM,71.4,57.6,62,30.00,10.0,WNW,17.3,23.0,N/A,,Mostly Cloudy,290,2013-05-23 18:58:00
2:58 PM,72.3,55.8,56,30.01,10.0,WNW,23.0,28.8,N/A,,Partly Cloudy,290,2013-05-23 19:58:00
3:58 PM,71.1,57.0,61,30.02,10.0,WNW,13.8,18.4,N/A,,Mostly Cloudy,300,2013-05-23 20:58:00
4:58 PM,70.9,56.1,59,30.03,10.0,NW,10.4,-,N/A,,Mostly Cloudy,310,2013-05-23 21:58:00
5:58 PM,69.3,55.6,62,30.04,10.0,NW,9.2,-,N/A,,Mostly Cloudy,310,2013-05-23 22:58:00
6:58 PM,68.7,55.8,63,30.05,10.0,NW,11.5,18.4,N/A,,Partly Cloudy,320,2013-05-23 23:58:00
7:58 PM,65.7,55.9,71,30.06,10.0,NW,10.4,-,N/A,,Mostly Cloudy,310,2013-05-24 00:58:00
8:58 PM,64.8,57.2,76,30.08,10.0,WNW,6.9,-,N/A,,Overcast,300,2013-05-24 01:58:00
9:21 PM,64.4,57.2,77,30.08,10.0,NW,5.8,-,N/A,,Overcast,310,2013-05-24 02:21:00
9:32 PM,64.4,57.2,77,30.08,10.0,NW,8.1,-,N/A,,Overcast,310,2013-05-24 02:32:00
9:48 PM,64.4,57.2,77,30.09,10.0,NW,9.2,-,N/A,,Overcast,310,2013-05-24 02:48:00
9:58 PM,64.2,58.1,80,30.09,10.0,NW,9.2,-,N/A,,Overcast,310,2013-05-24 02:58:00
10:10 PM,64.4,59.0,83,30.10,9.0,NW,10.4,-,N/A,,Heavy Drizzle,320,2013-05-24 03:10:00
10:12 PM,62.6,59.0,88,30.10,7.0,NNW,6.9,-,N/A,Rain,Light Rain,340,2013-05-24 03:12:00
10:19 PM,60.8,60.8,100,30.10,5.0,NNW,10.4,17.3,N/A,Rain,Rain,340,2013-05-24 03:19:00
10:20 PM,60.8,60.8,100,30.10,5.0,NNW,10.4,17.3,N/A,Rain,Rain,330,2013-05-24 03:20:00
10:21 PM,60.8,60.8,100,30.11,5.0,NNW,8.1,17.3,N/A,Rain,Rain,330,2013-05-24 03:21:00
10:26 PM,60.8,60.8,100,30.11,8.0,NNW,8.1,17.3,N/A,Rain,Light Rain,330,2013-05-24 03:26:00
10:29 PM,60.8,60.8,100,30.11,10.0,NNW,9.2,-,N/A,,Overcast,330,2013-05-24 03:29:00
10:33 PM,60.8,60.8,100,30.11,10.0,NNW,10.4,-,N/A,,Overcast,330,2013-05-24 03:33:00
10:40 PM,60.8,60.8,100,30.11,9.0,NNW,10.4,23.0,N/A,,Light Drizzle,330,2013-05-24 03:40:00
10:43 PM,59.0,59.0,100,30.11,8.0,NNW,12.7,23.0,N/A,Rain,Light Rain,340,2013-05-24 03:43:00
10:45 PM,59.0,59.0,100,30.11,8.0,NNW,12.7,23.0,N/A,Rain,Light Rain,340,2013-05-24 03:45:00
10:53 PM,59.0,59.0,100,30.12,10.0,NNW,13.8,19.6,N/A,,Light Drizzle,340,2013-05-24 03:53:00
10:54 PM,59.0,59.0,100,30.11,10.0,North,16.1,20.7,N/A,,Light Drizzle,350,2013-05-24 03:54:00
10:55 PM,59.0,59.0,100,30.11,10.0,North,16.1,21.9,N/A,,Overcast,350,2013-05-24 03:55:00
10:58 PM,58.5,58.5,100,30.11,10.0,NNW,16.1,21.9,0.01,,Overcast,340,2013-05-24 03:58:00
11:10 PM,57.2,57.2,100,30.12,10.0,NNW,13.8,20.7,N/A,,Overcast,340,2013-05-24 04:10:00
11:33 PM,57.2,57.2,100,30.14,10.0,NNW,9.2,-,N/A,,Overcast,330,2013-05-24 04:33:00
11:58 PM,56.3,55.0,96,30.14,10.0,NNW,10.4,17.3,N/A,,Overcast,340,2013-05-24 04:58:00